Location: Mohawk View
(42.7837°N, 73.7885°W)
Time: 15:41:23
(UTC+00:00)

SJ 16-02 - Pass Details

Date: 17 June 2021
Orbit: 606 x 616 km, 75.0° (Epoch: 02 August)

Event Time Altitude Azimuth Distance (km) Brightness Sun altitude
Rises 04:40:31 0° 351° (N) 2,874 6.2 -23.7°
Reaches altitude 10° 04:43:02 10° 4° (N) 1,964 5.0 -23.8°
Maximum altitude 04:46:48 27° 63° (ENE) 1,165 2.9 -23.8°
Enters shadow 04:47:59 24° 90° (E) 1,266 2.9 -23.8°
